This demonstration page uses our WeatherBlox Daily Observations layout. Learn more.

40.92945, -100.16068

Hourly Observations for December 10, 2018

Temp ( °F °C ) Dew Point ( °F °C ) Humidity (%) Winds ( mph kmh ) Pressure ( in mb ) Visibility ( mi km ) Precip ( " mm )
12:15 am 00:15 Clear 18 -8 13 -10.3 84 84 WNW 10 17 30.45 1031 10 16.0934 0 0
12:35 am 00:35 Clear 19 -7.5 14 -10 83 83 WNW 10 17 30.45 1031 10 16.0934 0 0
12:55 am 00:55 Clear 18 -7.6 14 -10 83 83 NW 12 19 30.45 1031 10 16.0934 0 0
1:15 am 01:15 Clear 17 -8.2 13 -10.6 83 83 NW 8 13 30.45 1031 10 16.0934 0 0
1:35 am 01:35 Clear 17 -8.6 13 -10.8 84 84 WNW 9 15 30.48 1032 10 16.0934 0 0
1:55 am 01:55 Clear 17 -8.4 13 -10.7 84 84 W 9 15 30.45 1031 10 16.0934 0 0
2:15 am 02:15 Clear 17 -8.4 12 -10.9 82 82 WNW 10 17 30.45 1031 10 16.0934 0 0
2:35 am 02:35 Clear 16 -8.7 12 -11 84 84 WNW 7 11 30.48 1032 10 16.0934 0 0
2:55 am 02:55 Clear 15 -9.2 11 -11.5 84 84 WNW 5 7 30.48 1032 10 16.0934 0 0
3:15 am 03:15 Clear 14 -9.8 10 -12 84 84 WNW 7 11 30.48 1032 10 16.0934 0 0
3:35 am 03:35 Clear 14 -9.9 10 -12 85 85 WNW 6 9 30.48 1032 10 16.0934 0 0
3:55 am 03:55 Clear 15 -9.7 10 -12 84 84 WNW 7 11 30.48 1032 10 16.0934 0 0
4:15 am 04:15 Clear 13 -10.4 9 -12.7 83 83 WNW 5 7 30.48 1032 10 16.0934 0 0
4:35 am 04:35 Clear 13 -10.5 9 -12.7 84 84 WNW 5 7 30.48 1032 10 16.0934 0 0
4:55 am 04:55 Clear 14 -10 10 -12.3 83 83 WNW 7 11 30.45 1031 10 16.0934 0 0
5:15 am 05:15 Clear 15 -9.7 11 -11.9 84 84 WNW 7 11 30.45 1031 10 16.0934 0 0
5:35 am 05:35 Clear 15 -9.3 11 -11.7 83 83 WNW 10 17 30.45 1031 10 16.0934 0 0
5:55 am 05:55 Clear 15 -9.5 10 -12 82 82 WNW 9 15 30.45 1031 10 16.0934 0 0
6:15 am 06:15 Clear 15 -9.2 11 -11.6 83 83 W 7 11 30.45 1031 10 16.0934 0 0
6:35 am 06:35 Clear 15 -9.5 11 -11.9 83 83 WNW 10 17 30.45 1031 10 16.0934 0 0
6:55 am 06:55 Clear 15 -9.7 10 -12 84 84 WNW 10 17 30.45 1031 10 16.0934 0 0
7:15 am 07:15 Clear 14 -9.8 10 -12.1 83 83 W 7 11 30.45 1031 10 16.0934 0 0
7:35 am 07:35 Clear 13 -10.3 9 -12.6 83 83 WNW 5 7 30.45 1031 10 16.0934 0 0
7:55 am 07:55 Sunny 12 -11 8 -13.1 85 85 WNW 7 11 30.45 1031 10 16.0934 0 0
8:15 am 08:15 Sunny 12 -11.1 8 -13.2 85 85 W 6 9 30.45 1031 10 16.0934 0 0
8:35 am 08:35 Sunny 13 -10.5 10 -12.5 85 85 W 3 6 30.45 1031 10 16.0934 0 0
8:55 am 08:55 Sunny 14 -9.9 10 -12 85 85 W 3 6 30.45 1031 10 16.0934 0 0
9:15 am 09:15 Sunny 16 -8.8 12 -11 84 84 W 6 9 30.42 1030 10 16.0934 0 0
9:35 am 09:35 Sunny 19 -7.5 14 -10.1 82 82 W 3 6 30.42 1030 10 16.0934 0 0
9:55 am 09:55 Sunny 20 -6.6 15 -9.6 79 79 W 3 6 30.42 1030 10 16.0934 0 0
10:15 am 10:15 Sunny 21 -5.9 16 -9.1 78 78 WNW 5 7 30.39 1029 10 16.0934 0 0
10:35 am 10:35 Sunny 23 -5 17 -8.3 78 78 WNW 8 13 30.39 1029 10 16.0934 0 0
10:55 am 10:55 Sunny 25 -4.1 18 -7.6 77 77 WNW 7 11 30.39 1029 10 16.0934 0 0
11:15 am 11:15 Sunny 27 -3 19 -7.3 73 73 W 6 9 30.36 1028 10 16.0934 0 0
11:35 am 11:35 Sunny 29 -1.8 20 -6.8 69 69 W 3 6 30.33 1027 10 16.0934 0 0
11:55 am 11:55 Sunny 31 -0.6 21 -6.1 67 67 W 3 6 30.33 1027 10 16.0934 0 0
12:15 pm 12:15 Sunny 32 0 22 -5.7 66 66 W 5 7 30.27 1025 10 16.0934 0 0
12:35 pm 12:35 Sunny 34 1 22 -5.6 62 62 Calm 30.27 1025 10 16.0934 0 0
12:55 pm 12:55 Sunny 36 2 22 -5.4 58 58 WSW 3 6 30.27 1025 10 16.0934 0 0
1:15 pm 13:15 Sunny 37 2.6 23 -5 58 58 SW 5 7 30.21 1023 10 16.0934 0 0
1:35 pm 13:35 Sunny 37 2.8 23 -5 57 57 SW 7 11 30.21 1023 10 16.0934 0 0
1:55 pm 13:55 Sunny 37 3 23 -5.1 56 56 SW 7 11 30.21 1023 10 16.0934 0 0
2:15 pm 14:15 Sunny 38 3.2 23 -4.8 56 56 SW 8 13 30.18 1022 10 16.0934 0 0
2:35 pm 14:35 Sunny 38 3.1 24 -4.7 57 57 WSW 8 13 30.18 1022 10 16.0934 0 0
2:55 pm 14:55 Sunny 37 3 24 -4.6 58 58 WSW 8 13 30.18 1022 10 16.0934 0 0
3:15 pm 15:15 Sunny 37 2.8 23 -4.8 58 58 WSW 8 13 30.18 1022 10 16.0934 0 0
3:35 pm 15:35 Sunny 37 2.8 24 -4.5 59 59 WSW 6 9 30.18 1022 10 16.0934 0 0
3:55 pm 15:55 Sunny 37 2.7 24 -4.5 59 59 SW 9 15 30.18 1022 10 16.0934 0 0
4:15 pm 16:15 Sunny 37 2.5 25 -4.1 62 62 SSW 5 7 30.18 1022 10 16.0934 0 0
4:35 pm 16:35 Sunny 35 1.5 24 -4.6 64 64 SW 6 9 30.21 1023 10 16.0934 0 0
4:55 pm 16:55 Sunny 34 0.9 23 -4.9 66 66 SSW 6 9 30.21 1023 10 16.0934 0 0
5:15 pm 17:15 Clear 32 0 23 -4.9 70 70 SSW 7 11 30.21 1023 10 16.0934 0 0
5:35 pm 17:35 Clear 31 -0.4 22 -5.3 70 70 SSW 6 9 30.21 1023 10 16.0934 0 0
5:55 pm 17:55 Clear 30 -1 22 -5.4 72 72 S 6 9 30.21 1023 10 16.0934 0 0
6:15 pm 18:15 Clear 29 -1.5 22 -5.6 74 74 S 3 6 30.18 1022 10 16.0934 0 0
6:35 pm 18:35 Clear 31 -0.8 22 -5.5 71 71 S 3 6 30.18 1022 10 16.0934 0 0
6:55 pm 18:55 Clear 31 -0.5 22 -5.4 70 70 Calm 30.18 1022 10 16.0934 0 0
7:15 pm 19:15 Clear 31 -0.3 23 -5.2 70 70 Calm 30.18 1022 10 16.0934 0 0
7:35 pm 19:35 Clear 32 0.1 22 -5.3 67 67 S 5 7 30.18 1022 10 16.0934 0 0
7:55 pm 19:55 Clear 32 -0.1 22 -5.7 66 66 S 6 9 30.18 1022 10 16.0934 0 0
8:15 pm 20:15 Clear 32 0.1 22 -5.7 65 65 S 7 11 30.18 1022 10 16.0934 0 0
8:35 pm 20:35 Clear 33 0.4 22 -5.7 64 64 S 6 9 30.18 1022 10 16.0934 0 0
8:55 pm 20:55 Clear 31 -0.6 20 -6.4 65 65 SSE 5 7 30.15 1021 10 16.0934 0 0
9:15 pm 21:15 Clear 26 -3.2 19 -7.3 74 74 Calm 30.18 1022 10 16.0934 0 0
9:35 pm 21:35 Clear 26 -3.2 20 -6.9 76 76 Calm 30.18 1022 10 16.0934 0 0
9:55 pm 21:55 Clear 29 -1.8 20 -6.7 70 70 S 3 6 30.15 1021 10 16.0934 0 0
10:15 pm 22:15 Clear 30 -1 20 -6.6 66 66 Calm 30.15 1021 10 16.0934 0 0
10:35 pm 22:35 Clear 30 -1.2 19 -7.3 64 64 WNW 3 6 30.15 1021 10 16.0934 0 0
10:55 pm 22:55 Clear 22 -5.8 16 -9.1 78 78 Calm 30.21 1023 10 16.0934 0 0
11:15 pm 23:15 Clear 19 -7.4 15 -9.7 84 84 Calm 30.21 1023 10 16.0934 0 0
11:35 pm 23:35 Clear 25 -3.9 16 -8.8 69 69 W 6 9 30.18 1022 10 16.0934 0 0
11:55 pm 23:55 Clear 25 -4.1 15 -9.2 68 68 WNW 3 6 30.18 1022 10 16.0934 0 0

Powered by AerisWeather